Martinsville, VA

11:01 AM EDT on April 24, 2017 (GMT -0400)
Blue Ridge

Weather History for KMTV - July, 2013

Change the Weather History Date:

Saturday, July 13, 2013

  Actual Average (KINT) Record (KINT)
Temperature  
Mean Temperature 74 °F -  
Max Temperature 79 °F 85 °F 97 °F (1993)
Min Temperature 68 °F 67 °F 56 °F (1973)
Cooling Degree Days 8    
Growing Degree Days 24 (Base 50)    
Moisture  
Dew Point 68 °F    
Average Humidity 87    
Maximum Humidity 95    
Minimum Humidity 73    
Precipitation  
Precipitation 0.00 in - - ()
Sea Level Pressure  
Sea Level Pressure 30.17 in    
Wind  
Wind Speed 2 mph (ENE)    
Max Wind Speed 10 mph    
Max Gust Speed -    
Visibility 10 miles    
Events Rain , Thunderstorm    
Averages and records for this station are not official NWS values.
T = Trace of Precipitation, MM = Missing Value Source: NWS Daily Summary

Daily Weather History Graph

Daily Weather History Graph

Search for Another Location

Airport or City:

Trip Planner

Search our weather history database for the weather conditions in past years. The results will help you decide how hot, cold, wet, or windy it might be!

Date:

Astronomy

Jul. 13, 2013 Rise Set
Actual Time 6:12 AM EDT 8:39 PM EDT
Civil Twilight 5:42 AM EDT 9:09 PM EDT
Nautical Twilight 5:05 AM EDT 9:46 PM EDT
Astronomical Twilight 4:24 AM EDT 10:26 PM EDT
Moon 11:16 AM EDT (7/13) 11:29 PM EDT (7/13)
Length of Visible Light 15h 27m
Length of Day
14h 27m
Waxing Crescent, 25% of the Moon is Illuminated
Jul 13
Waxing Crescent
Jul 15
First Quarter
Jul 22
Full
Jul 29
Last Quarter
Aug 6
New

Hourly Weather History & Observations

Time (EDT) Temp. Dew Point Humidity Pressure Visibility Wind Dir Wind Speed Gust Speed Precip Events Conditions
12:15 AM 68.2 °F 65.1 °F 90% 30.10 in 10.0 mi Calm Calm - N/A   Overcast
12:35 AM 68.4 °F 65.3 °F 90% 30.10 in 10.0 mi Calm Calm - N/A   Overcast
12:55 AM 68.2 °F 65.5 °F 91% 30.11 in 10.0 mi Calm Calm - N/A   Overcast
1:15 AM 68.2 °F 65.3 °F 90% 30.10 in 10.0 mi Calm Calm - N/A   Overcast
1:35 AM 68.2 °F 65.3 °F 90% 30.10 in 10.0 mi Calm Calm - N/A   Overcast
1:55 AM 68.2 °F 65.5 °F 91% 30.10 in 10.0 mi NNW 3.5 mph - N/A   Overcast
2:15 AM 68.2 °F 65.5 °F 91% 30.10 in 10.0 mi NNW 3.5 mph - N/A   Overcast
2:35 AM 68.4 °F 65.7 °F 91% 30.10 in 10.0 mi North 3.5 mph - N/A   Overcast
2:55 AM 68.5 °F 65.5 °F 90% 30.10 in 10.0 mi North 3.5 mph - N/A   Overcast
3:15 AM 68.2 °F 65.5 °F 91% 30.10 in 10.0 mi Calm Calm - N/A   Overcast
3:35 AM 68.0 °F 65.7 °F 92% 30.10 in 10.0 mi Calm Calm - N/A   Light Drizzle
3:55 AM 68.2 °F 65.7 °F 92% 30.11 in 10.0 mi Calm Calm - N/A   Overcast
4:15 AM 68.2 °F 65.5 °F 91% 30.11 in 10.0 mi Calm Calm - N/A   Overcast
4:35 AM 68.2 °F 65.5 °F 91% 30.12 in 10.0 mi North 3.5 mph - N/A   Overcast
4:55 AM 68.2 °F 65.5 °F 91% 30.11 in 10.0 mi Calm Calm - N/A   Overcast
5:15 AM 68.2 °F 65.7 °F 92% 30.11 in 10.0 mi Calm Calm - N/A   Overcast
5:35 AM 68.2 °F 65.8 °F 92% 30.12 in 10.0 mi Calm Calm - N/A   Overcast
5:55 AM 68.2 °F 65.8 °F 92% 30.12 in 10.0 mi Calm Calm - N/A   Overcast
6:15 AM 68.2 °F 66.2 °F 93% 30.12 in 10.0 mi NE 3.5 mph - N/A   Overcast
6:35 AM 68.2 °F 66.4 °F 94% 30.13 in 10.0 mi Calm Calm - N/A Rain Light Rain
6:55 AM 68.4 °F 66.6 °F 94% 30.14 in 7.0 mi Calm Calm - N/A   Overcast
7:15 AM 68.5 °F 66.9 °F 95% 30.15 in 5.0 mi Calm Calm - N/A   Overcast
7:35 AM 68.9 °F 67.3 °F 95% 30.15 in 7.0 mi East 3.5 mph - N/A   Overcast
7:55 AM 69.6 °F 67.8 °F 94% 30.15 in 7.0 mi ENE 3.5 mph - N/A Rain Light Rain
8:15 AM 69.8 °F 68.0 °F 94% 30.16 in 7.0 mi NE 3.5 mph - N/A   Overcast
8:35 AM 69.8 °F 67.3 °F 92% 30.17 in 10.0 mi ENE 4.6 mph - N/A   Overcast
8:55 AM 69.8 °F 67.3 °F 92% 30.17 in 7.0 mi ENE 4.6 mph - N/A   Overcast
9:15 AM 70.3 °F 67.8 °F 92% 30.17 in 7.0 mi Calm Calm - N/A   Overcast
9:35 AM 70.7 °F 67.5 °F 89% 30.17 in 10.0 mi ENE 4.6 mph - N/A   Overcast
9:55 AM 70.9 °F 67.6 °F 89% 30.18 in 10.0 mi East 5.8 mph - N/A   Overcast
10:15 AM 71.1 °F 68.0 °F 90% 30.19 in 10.0 mi East 4.6 mph - N/A   Overcast
10:35 AM 70.9 °F 67.8 °F 90% 30.19 in 10.0 mi East 5.8 mph - N/A   Overcast
10:55 AM 70.9 °F 67.6 °F 89% 30.19 in 10.0 mi East 5.8 mph - N/A   Overcast
11:15 AM 71.6 °F 67.8 °F 88% 30.20 in 10.0 mi Calm Calm - N/A   Overcast
11:35 AM 72.0 °F 67.8 °F 87% 30.20 in 10.0 mi ENE 4.6 mph - N/A   Overcast
11:55 AM 73.2 °F 68.4 °F 85% 30.20 in 10.0 mi Calm Calm - N/A   Light Drizzle
12:15 PM 74.7 °F 68.5 °F 81% 30.21 in 10.0 mi East 5.8 mph - N/A Rain Light Rain
12:35 PM 74.8 °F 68.2 °F 80% 30.21 in 10.0 mi ENE 4.6 mph - N/A   Overcast
12:55 PM 74.3 °F 68.2 °F 81% 30.21 in 10.0 mi NE 4.6 mph - N/A   Overcast
1:15 PM 76.6 °F 69.3 °F 78% 30.20 in 10.0 mi ENE 5.8 mph - N/A   Overcast
1:35 PM 76.6 °F 68.7 °F 76% 30.20 in 10.0 mi ENE 8.1 mph - N/A   Overcast
1:55 PM 76.8 °F 69.1 °F 77% 30.20 in 10.0 mi East 5.8 mph - N/A   Overcast
2:15 PM 77.0 °F 68.9 °F 76% 30.20 in 10.0 mi East 6.9 mph - N/A   Overcast
2:35 PM 76.6 °F 69.4 °F 78% 30.20 in 10.0 mi ENE 4.6 mph - N/A   Overcast
2:55 PM 79.0 °F 69.8 °F 73% 30.18 in 10.0 mi NNE 5.8 mph - N/A   Overcast
3:15 PM 78.8 °F 69.4 °F 73% 30.19 in 10.0 mi East 10.4 mph - N/A   Overcast
3:35 PM 77.0 °F 69.3 °F 77% 30.19 in 10.0 mi East 9.2 mph - N/A Thunderstorm Overcast
3:55 PM 77.4 °F 69.8 °F 77% 30.19 in 10.0 mi East 5.8 mph - N/A   Overcast
4:15 PM 79.2 °F 69.8 °F 73% 30.19 in 10.0 mi East 6.9 mph - N/A   Overcast
4:35 PM 78.8 °F 70.3 °F 75% 30.18 in 10.0 mi ENE 4.6 mph - N/A   Overcast
4:55 PM 78.8 °F 70.0 °F 74% 30.18 in 10.0 mi ENE 6.9 mph - N/A   Overcast
5:15 PM 78.3 °F 70.3 °F 77% 30.18 in 10.0 mi East 4.6 mph - N/A   Overcast
5:35 PM 78.8 °F 70.3 °F 75% 30.18 in 10.0 mi ENE 4.6 mph - N/A   Overcast
5:55 PM 78.1 °F 71.1 °F 79% 30.17 in 10.0 mi East 5.8 mph - N/A   Overcast
6:15 PM 77.9 °F 70.9 °F 79% 30.17 in 10.0 mi East 6.9 mph - N/A   Overcast
6:35 PM 76.6 °F 70.9 °F 82% 30.18 in 10.0 mi East 5.8 mph - N/A   Overcast
6:55 PM 77.2 °F 70.9 °F 81% 30.18 in 10.0 mi East 6.9 mph - N/A   Mostly Cloudy
7:15 PM 77.5 °F 71.4 °F 81% 30.18 in 10.0 mi East 4.6 mph - N/A   Mostly Cloudy
7:35 PM 76.6 °F 71.2 °F 83% 30.19 in 10.0 mi East 3.5 mph - N/A   Overcast
7:55 PM 76.6 °F 71.6 °F 84% 30.20 in 10.0 mi ENE 3.5 mph - N/A   Overcast
8:15 PM 76.5 °F 72.1 °F 86% 30.20 in 10.0 mi ENE 3.5 mph - N/A   Overcast
8:35 PM 75.2 °F 71.6 °F 89% 30.20 in 10.0 mi East 3.5 mph - N/A   Mostly Cloudy
8:55 PM 74.3 °F 71.6 °F 91% 30.20 in 10.0 mi Calm Calm - N/A   Mostly Cloudy
9:15 PM 73.9 °F 71.6 °F 92% 30.20 in 10.0 mi Calm Calm - N/A   Overcast
9:35 PM 73.0 °F 71.1 °F 93% 30.20 in 10.0 mi Calm Calm - N/A   Mostly Cloudy
9:55 PM 73.0 °F 70.9 °F 93% 30.22 in 10.0 mi Calm Calm - N/A   Overcast
10:15 PM 73.9 °F 71.6 °F 92% 30.22 in 10.0 mi Calm Calm - N/A   Overcast
10:35 PM 73.9 °F 71.2 °F 91% 30.22 in 10.0 mi East 3.5 mph - N/A   Overcast
10:55 PM 73.9 °F 71.6 °F 92% 30.22 in 10.0 mi East 4.6 mph - N/A   Overcast
11:15 PM 74.3 °F 71.6 °F 91% 30.22 in 10.0 mi East 6.9 mph - N/A   Overcast
11:35 PM 74.5 °F 71.2 °F 90% 30.23 in 10.0 mi East 8.1 mph - N/A   Overcast
11:55 PM 74.3 °F 70.9 °F 89% 30.23 in 10.0 mi East 8.1 mph - N/A   Overcast